User: anonymous
Location: Observatorio Las Palmas
(29.0667°N, 110.9333°W)
Time: 11:50:06
(UTC-07:00)
Language:

NOAA 19 - Orbit

View from above orbital plane
View from above orbital plane
View from above satellite
View from above satellite

Ground track
Ground track

The orbit data is extracted from the following two-line orbital elements,

1 33591U 09005A   14210.45724363  .00000098  00000-0  78123-4 0  3195
2 33591 098.9463 155.3729 0014012 005.3659 131.8571 14.11741849281951
Epoch (UTC): 29 July 2014 10:58:25
Eccentricity: 0.0014012
inclination: 98.9463°
perigee height: 843 km
apogee height: 863 km
right ascension of ascending node: 155.3729°
argument of perigee: 5.3659°
revolutions per day: 14.11741849
mean anomaly at epoch: 131.8571°
orbit number at epoch: 28195

The dashed part of the orbit path shows where the satellite is in the earth's shadow,  

DLR